Time,TemperatureF,DewpointF,PressureIn,WindDirection,WindDirectionDegrees,WindSpeedMPH,WindSpeedGustMPH,Humidity,HourlyPrecipIn,Conditions,Clouds,dailyrainin,SoftwareType,DateUTC
2013-04-30 00:00:00,66.1,64.3,29.91,SSE,167,0.0,0.0,94,0.00,,SCT200,0.12,VWS V13.01,2013-04-30 05:00:00,
2013-04-30 00:02:00,65.5,63.7,29.91,SSE,167,0.0,0.0,94,0.00,,CLR,0.00,VWS V13.01,2013-04-30 05:02:00,
2013-04-30 00:08:00,65.4,63.6,29.91,SSE,167,0.0,0.0,94,0.00,,CLR,0.00,VWS V13.01,2013-04-30 05:08:00,
2013-04-30 00:13:00,65.3,63.5,29.91,SSE,167,0.0,0.0,94,0.00,,CLR,0.00,VWS V13.01,2013-04-30 05:13:00,
2013-04-30 00:15:00,65.9,64.1,29.91,SSE,167,0.0,0.0,94,0.00,,SCT200,0.12,VWS V13.01,2013-04-30 05:15:00,
2013-04-30 00:18:00,65.3,63.5,29.91,SSE,167,0.0,0.0,94,0.00,,CLR,0.00,VWS V13.01,2013-04-30 05:18:00,
2013-04-30 00:23:00,65.3,63.5,29.90,SSE,167,0.0,0.0,94,0.00,,CLR,0.00,VWS V13.01,2013-04-30 05:23:00,
2013-04-30 00:28:00,65.2,63.4,29.90,SSE,167,0.0,0.0,94,0.00,,CLR,0.00,VWS V13.01,2013-04-30 05:28:00,
2013-04-30 00:30:00,65.8,64.0,29.91,SSE,167,0.0,0.0,94,0.00,,SCT200,0.12,VWS V13.01,2013-04-30 05:30:00,
2013-04-30 00:33:00,65.1,63.3,29.90,SSE,167,0.0,0.0,94,0.00,,SCT007,0.00,VWS V13.01,2013-04-30 05:33:00,
2013-04-30 00:38:00,65.1,63.3,29.90,SSE,167,0.0,0.0,94,0.00,,SCT007,0.00,VWS V13.01,2013-04-30 05:38:00,
2013-04-30 00:43:00,65.0,63.5,29.90,SSE,167,0.0,0.0,95,0.00,,SCT007,0.00,VWS V13.01,2013-04-30 05:43:00,
2013-04-30 00:45:00,65.6,63.8,29.91,SSE,167,0.0,0.0,94,0.00,,SCT200,0.12,VWS V13.01,2013-04-30 05:45:00,
2013-04-30 00:49:00,65.0,63.5,29.90,SSE,167,0.0,0.0,95,0.00,,SCT007,0.00,VWS V13.01,2013-04-30 05:49:00,
2013-04-30 00:54:00,64.9,63.4,29.90,SSE,167,0.0,0.0,95,0.00,,SCT007,0.00,VWS V13.01,2013-04-30 05:54:00,
2013-04-30 00:59:00,64.8,63.3,29.90,SSE,167,0.0,0.0,95,0.00,,SCT007,0.00,VWS V13.01,2013-04-30 05:59:00,
2013-04-30 01:00:00,65.5,63.7,29.91,SSE,167,0.0,0.0,94,0.00,,SCT200,0.00,VWS V13.01,2013-04-30 06:00:00,
2013-04-30 01:04:00,64.7,62.9,29.90,SSE,167,0.0,0.0,94,0.00,,CLR,0.00,VWS V13.01,2013-04-30 06:04:00,
2013-04-30 01:09:00,64.6,63.1,29.90,SSE,167,0.0,0.0,95,0.00,,CLR,0.00,VWS V13.01,2013-04-30 06:09:00,
2013-04-30 01:14:00,64.6,63.1,29.90,SSE,167,0.0,0.0,95,0.00,,CLR,0.00,VWS V13.01,2013-04-30 06:14:00,
2013-04-30 01:15:00,65.3,63.5,29.91,SSE,167,0.0,0.0,94,0.00,,SCT200,0.00,VWS V13.01,2013-04-30 06:15:00,
2013-04-30 01:19:00,64.4,62.9,29.90,SSE,167,0.0,0.0,95,0.00,,CLR,0.00,VWS V13.01,2013-04-30 06:19:00,
2013-04-30 01:24:00,64.3,62.8,29.89,SSE,167,0.0,0.0,95,0.00,,CLR,0.00,VWS V13.01,2013-04-30 06:24:00,
2013-04-30 01:30:00,64.1,62.6,29.89,SSE,167,0.0,0.0,95,0.00,,CLR,0.00,VWS V13.01,2013-04-30 06:30:00,
2013-04-30 01:35:00,64.0,62.5,29.90,SSE,167,0.0,0.0,95,0.00,,CLR,0.00,VWS V13.01,2013-04-30 06:35:00,
2013-04-30 01:40:00,63.9,62.1,29.89,SSE,167,0.0,0.0,94,0.00,,CLR,0.00,VWS V13.01,2013-04-30 06:40:00,
2013-04-30 01:45:00,63.8,62.3,29.89,SSE,167,0.0,0.0,95,0.00,,CLR,0.00,VWS V13.01,2013-04-30 06:45:00,
2013-04-30 01:50:00,63.7,62.2,29.89,SSE,167,0.0,0.0,95,0.00,,CLR,0.00,VWS V13.01,2013-04-30 06:50:00,
2013-04-30 01:55:00,63.8,62.3,29.89,SSE,167,0.0,0.0,95,0.00,,CLR,0.00,VWS V13.01,2013-04-30 06:55:00,
2013-04-30 02:00:00,63.8,62.3,29.89,SSE,167,0.0,0.0,95,0.00,,CLR,0.00,VWS V13.01,2013-04-30 07:00:00,
2013-04-30 02:05:00,63.7,62.2,29.89,SSE,167,0.0,0.0,95,0.00,,CLR,0.00,VWS V13.01,2013-04-30 07:05:00,
2013-04-30 02:10:00,63.6,62.2,29.89,SSE,167,0.0,0.0,95,0.00,,CLR,0.00,VWS V13.01,2013-04-30 07:10:00,
2013-04-30 02:15:00,63.5,62.0,29.89,SSE,167,0.0,0.0,95,0.00,,CLR,0.00,VWS V13.01,2013-04-30 07:15:00,
2013-04-30 02:21:00,63.5,62.0,29.88,SSE,167,0.0,0.0,95,0.00,,CLR,0.00,VWS V13.01,2013-04-30 07:21:00,
2013-04-30 02:26:00,63.4,62.0,29.88,SSE,167,0.0,0.0,95,0.00,,CLR,0.00,VWS V13.01,2013-04-30 07:26:00,
2013-04-30 02:30:00,64.1,62.6,29.89,SSE,167,0.0,0.0,95,0.00,,SCT200,0.00,VWS V13.01,2013-04-30 07:30:00,
2013-04-30 02:31:00,63.3,61.8,29.88,SSE,167,0.0,0.0,95,0.00,,,0.00,VWS V13.01,2013-04-30 07:31:00,
2013-04-30 02:36:00,63.3,61.8,29.89,SSE,167,0.0,0.0,95,0.00,,,0.00,VWS V13.01,2013-04-30 07:36:00,
2013-04-30 02:41:00,63.4,62.0,29.89,SSE,167,0.0,0.0,95,0.00,,,0.00,VWS V13.01,2013-04-30 07:41:00,
2013-04-30 02:45:00,63.8,62.3,29.89,SSE,167,0.0,0.0,95,0.00,,SCT200,0.00,VWS V13.01,2013-04-30 07:45:00,
2013-04-30 02:46:00,63.5,62.0,29.89,SSE,167,0.0,0.0,95,0.00,,,0.00,VWS V13.01,2013-04-30 07:46:00,
2013-04-30 02:51:00,63.8,62.3,29.89,SSE,167,0.0,0.0,95,0.00,,,0.00,VWS V13.01,2013-04-30 07:51:00,
2013-04-30 02:56:00,64.2,62.7,29.89,SSE,167,0.0,0.0,95,0.00,,,0.00,VWS V13.01,2013-04-30 07:56:00,
2013-04-30 03:00:00,63.7,62.2,29.89,SSE,167,0.0,0.0,95,0.00,,SCT200,0.00,VWS V13.01,2013-04-30 08:00:00,
2013-04-30 03:08:00,64.7,63.2,29.89,SSE,167,0.0,0.0,95,0.00,,,0.00,VWS V13.01,2013-04-30 08:08:00,
2013-04-30 03:13:00,64.9,63.4,29.89,SSE,167,0.0,0.0,95,0.00,,,0.00,VWS V13.01,2013-04-30 08:13:00,
2013-04-30 03:15:00,63.5,62.0,29.89,SSE,167,0.0,0.0,95,0.00,,SCT200,0.00,VWS V13.01,2013-04-30 08:15:00,
2013-04-30 03:18:00,65.1,63.6,29.89,SSE,167,0.0,0.0,95,0.00,,,0.00,VWS V13.01,2013-04-30 08:18:00,
2013-04-30 03:23:00,65.3,63.8,29.88,SSE,167,0.0,0.0,95,0.00,,,0.00,VWS V13.01,2013-04-30 08:23:00,
2013-04-30 03:28:00,65.3,63.8,29.88,SSE,167,0.0,0.0,95,0.00,,,0.00,VWS V13.01,2013-04-30 08:28:00,
2013-04-30 03:30:00,63.3,61.8,29.88,SSE,167,0.0,0.0,95,0.00,,SCT200,0.00,VWS V13.01,2013-04-30 08:30:00,
2013-04-30 03:33:00,65.3,63.8,29.88,SSE,167,0.0,0.0,95,0.00,,,0.00,VWS V13.01,2013-04-30 08:33:00,
2013-04-30 03:38:00,65.4,63.9,29.88,SSE,167,0.0,0.0,95,0.00,,,0.00,VWS V13.01,2013-04-30 08:38:00,
2013-04-30 03:43:00,65.5,64.0,29.88,SSE,167,0.0,0.0,95,0.00,,,0.00,VWS V13.01,2013-04-30 08:43:00,
2013-04-30 03:45:00,63.5,62.0,29.89,SSE,167,0.0,0.0,95,0.00,,SCT200,0.00,VWS V13.01,2013-04-30 08:45:00,
2013-04-30 03:49:00,65.6,64.4,29.88,SSE,167,0.0,0.0,96,0.00,,,0.00,VWS V13.01,2013-04-30 08:49:00,
2013-04-30 03:54:00,65.8,64.3,29.88,SSE,167,0.0,0.0,95,0.00,,,0.00,VWS V13.01,2013-04-30 08:54:00,
2013-04-30 03:59:00,66.0,64.5,29.88,SSE,167,0.0,0.0,95,0.00,,,0.00,VWS V13.01,2013-04-30 08:59:00,
2013-04-30 04:00:00,64.4,62.9,29.89,SSE,167,0.0,0.0,95,0.00,,SCT200,0.00,VWS V13.01,2013-04-30 09:00:00,
2013-04-30 04:04:00,66.2,64.7,29.88,SSE,167,0.0,0.0,95,0.00,,,0.00,VWS V13.01,2013-04-30 09:04:00,
2013-04-30 04:09:00,66.3,65.1,29.88,SSE,167,0.0,0.0,96,0.00,,,0.00,VWS V13.01,2013-04-30 09:09:00,
2013-04-30 04:14:00,66.4,65.2,29.88,SSE,167,0.0,0.0,96,0.00,,,0.00,VWS V13.01,2013-04-30 09:14:00,
2013-04-30 04:15:00,65.0,63.5,29.88,SSE,167,0.0,0.0,95,0.00,,SCT200,0.00,VWS V13.01,2013-04-30 09:15:00,
2013-04-30 04:19:00,66.5,65.3,29.88,SSE,167,0.0,0.0,96,0.00,,,0.00,VWS V13.01,2013-04-30 09:19:00,
2013-04-30 04:24:00,66.5,65.0,29.88,SSE,167,0.0,0.0,95,0.00,,,0.00,VWS V13.01,2013-04-30 09:24:00,
2013-04-30 04:30:00,66.5,65.0,29.88,SSE,167,0.0,0.0,95,0.00,,,0.00,VWS V13.01,2013-04-30 09:30:00,
2013-04-30 04:35:00,66.5,65.3,29.88,SSE,167,0.0,0.0,96,0.00,,,0.00,VWS V13.01,2013-04-30 09:35:00,
2013-04-30 04:40:00,66.5,65.3,29.88,SSE,167,0.0,0.0,96,0.00,,,0.00,VWS V13.01,2013-04-30 09:40:00,
2013-04-30 04:45:00,66.5,65.3,29.88,SSE,167,0.0,0.0,96,0.00,,,0.00,VWS V13.01,2013-04-30 09:45:00,
2013-04-30 04:50:00,66.5,65.3,29.88,SSE,167,0.0,0.0,96,0.00,,,0.00,VWS V13.01,2013-04-30 09:50:00,
2013-04-30 04:55:00,66.5,65.3,29.87,SSE,167,0.0,0.0,96,0.00,,,0.00,VWS V13.01,2013-04-30 09:55:00,
2013-04-30 05:00:00,66.5,65.3,29.88,SSE,167,0.0,0.0,96,0.00,,,0.00,VWS V13.01,2013-04-30 10:00:00,
2013-04-30 05:05:00,66.5,65.3,29.88,SSE,167,0.0,0.0,96,0.00,,,0.00,VWS V13.01,2013-04-30 10:05:00,
2013-04-30 05:10:00,66.4,65.2,29.88,SSE,167,0.0,0.0,96,0.00,,,0.00,VWS V13.01,2013-04-30 10:10:00,
2013-04-30 05:15:00,66.4,65.2,29.88,SSE,167,0.0,0.0,96,0.00,,SCT200,0.00,VWS V13.01,2013-04-30 10:15:00,
2013-04-30 05:16:00,66.4,65.2,29.88,SSE,167,0.0,0.0,96,0.00,,,0.00,VWS V13.01,2013-04-30 10:16:00,
2013-04-30 05:21:00,66.4,65.2,29.89,SSE,167,0.0,0.0,96,0.00,,,0.00,VWS V13.01,2013-04-30 10:21:00,
2013-04-30 05:26:00,66.4,65.2,29.89,SSE,167,0.0,0.0,96,0.00,,,0.00,VWS V13.01,2013-04-30 10:26:00,
2013-04-30 05:30:00,66.5,65.0,29.88,SSE,167,0.0,0.0,95,0.00,,SCT200,0.00,VWS V13.01,2013-04-30 10:30:00,
2013-04-30 05:31:00,66.4,65.2,29.89,SSE,167,0.0,0.0,96,0.00,,,0.00,VWS V13.01,2013-04-30 10:31:00,
2013-04-30 05:36:00,66.3,65.1,29.89,SSE,167,0.0,0.0,96,0.00,,,0.00,VWS V13.01,2013-04-30 10:36:00,
2013-04-30 05:41:00,66.2,65.0,29.89,SSE,167,0.0,0.0,96,0.00,,,0.00,VWS V13.01,2013-04-30 10:41:00,
2013-04-30 05:45:00,66.5,65.3,29.88,SSE,167,0.0,0.0,96,0.00,,SCT200,0.00,VWS V13.01,2013-04-30 10:45:00,
2013-04-30 05:46:00,66.1,64.6,29.89,SSE,167,0.0,0.0,95,0.00,,,0.00,VWS V13.01,2013-04-30 10:46:00,
2013-04-30 05:51:00,66.1,64.6,29.89,SSE,167,0.0,0.0,95,0.00,,,0.00,VWS V13.01,2013-04-30 10:51:00,
2013-04-30 05:56:00,66.0,64.5,29.89,SSE,167,0.0,0.0,95,0.00,,,0.00,VWS V13.01,2013-04-30 10:56:00,
2013-04-30 06:00:00,66.5,65.3,29.88,SSE,167,0.0,0.0,96,0.00,,SCT200,0.00,VWS V13.01,2013-04-30 11:00:00,
2013-04-30 06:01:00,66.0,64.5,29.89,SSE,167,0.0,0.0,95,0.00,,,0.00,VWS V13.01,2013-04-30 11:01:00,
2013-04-30 06:06:00,66.0,64.5,29.89,SSE,167,0.0,0.0,95,0.00,,,0.00,VWS V13.01,2013-04-30 11:06:00,
2013-04-30 06:12:00,65.9,64.4,29.90,SSE,167,0.0,0.0,95,0.00,,,0.00,VWS V13.01,2013-04-30 11:12:00,
2013-04-30 06:15:00,66.4,65.2,29.88,SSE,167,0.0,0.0,96,0.00,,SCT200,0.00,VWS V13.01,2013-04-30 11:15:00,
2013-04-30 06:17:00,66.0,64.5,29.90,SSE,167,0.0,0.0,95,0.00,,,0.00,VWS V13.01,2013-04-30 11:17:00,
2013-04-30 06:22:00,66.0,64.5,29.90,SSE,167,0.0,0.0,95,0.00,,,0.00,VWS V13.01,2013-04-30 11:22:00,
2013-04-30 06:27:00,66.1,64.6,29.90,SSE,167,0.0,0.0,95,0.00,,,0.00,VWS V13.01,2013-04-30 11:27:00,
2013-04-30 06:30:00,66.4,65.2,29.89,SSE,167,0.0,0.0,96,0.00,,SCT200,0.00,VWS V13.01,2013-04-30 11:30:00,
2013-04-30 06:32:00,66.2,64.7,29.90,SSE,167,0.0,0.0,95,0.00,,,0.00,VWS V13.01,2013-04-30 11:32:00,
2013-04-30 06:37:00,66.2,65.0,29.91,SSE,167,0.0,0.0,96,0.00,,,0.00,VWS V13.01,2013-04-30 11:37:00,
2013-04-30 06:42:00,66.3,65.1,29.90,SSE,167,0.0,0.0,96,0.00,,,0.00,VWS V13.01,2013-04-30 11:42:00,
2013-04-30 06:45:00,66.1,64.6,29.89,SSE,167,0.0,0.0,95,0.00,,SCT200,0.00,VWS V13.01,2013-04-30 11:45:00,
2013-04-30 06:47:00,66.3,65.1,29.91,SSE,167,0.0,0.0,96,0.00,,,0.00,VWS V13.01,2013-04-30 11:47:00,
2013-04-30 06:52:00,66.3,65.1,29.91,SSE,167,0.0,0.0,96,0.00,,,0.00,VWS V13.01,2013-04-30 11:52:00,
2013-04-30 06:58:00,66.4,65.2,29.91,SSE,167,0.0,0.0,96,0.00,,,0.00,VWS V13.01,2013-04-30 11:58:00,
2013-04-30 07:00:00,66.0,64.5,29.89,SSE,167,0.0,0.0,95,0.00,,SCT200,0.00,VWS V13.01,2013-04-30 12:00:00,
2013-04-30 07:03:00,66.4,65.2,29.91,SSE,167,0.0,0.0,96,0.00,,,0.00,VWS V13.01,2013-04-30 12:03:00,
2013-04-30 07:08:00,66.5,65.3,29.92,SSE,167,0.0,0.0,96,0.00,,,0.00,VWS V13.01,2013-04-30 12:08:00,
2013-04-30 07:13:00,66.7,65.5,29.91,SSE,167,0.0,0.0,96,0.00,,,0.00,VWS V13.01,2013-04-30 12:13:00,
2013-04-30 07:15:00,66.0,64.5,29.90,SSE,167,0.0,0.0,95,0.00,,SCT200,0.00,VWS V13.01,2013-04-30 12:15:00,
2013-04-30 07:18:00,66.9,65.7,29.91,SSE,167,0.0,0.0,96,0.00,,,0.00,VWS V13.01,2013-04-30 12:18:00,
2013-04-30 07:23:00,67.0,65.8,29.91,SSE,167,0.0,0.0,96,0.00,,,0.00,VWS V13.01,2013-04-30 12:23:00,
2013-04-30 07:28:00,67.2,66.0,29.91,SSE,167,0.0,0.0,96,0.00,,,0.00,VWS V13.01,2013-04-30 12:28:00,
2013-04-30 07:30:00,66.1,64.6,29.90,SSE,167,0.0,0.0,95,0.00,,SCT200,0.00,VWS V13.01,2013-04-30 12:30:00,
2013-04-30 07:33:00,67.3,66.1,29.91,SSE,167,0.0,0.0,96,0.00,,,0.00,VWS V13.01,2013-04-30 12:33:00,
2013-04-30 07:38:00,67.5,66.3,29.91,SSE,167,0.0,0.0,96,0.00,,,0.00,VWS V13.01,2013-04-30 12:38:00,
2013-04-30 07:44:00,67.7,66.5,29.91,SSE,167,0.0,0.0,96,0.00,,,0.00,VWS V13.01,2013-04-30 12:44:00,
2013-04-30 07:45:00,66.3,65.1,29.91,SSE,167,0.0,0.0,96,0.00,,SCT200,0.00,VWS V13.01,2013-04-30 12:45:00,
2013-04-30 07:49:00,67.9,66.7,29.92,SSE,167,0.0,0.0,96,0.00,,,0.00,VWS V13.01,2013-04-30 12:49:00,
2013-04-30 07:54:00,68.1,66.9,29.92,SSE,167,0.0,3.0,96,0.00,,,0.00,VWS V13.01,2013-04-30 12:54:00,
2013-04-30 07:59:00,68.3,67.1,29.92,SSE,167,0.0,3.0,96,0.00,,,0.00,VWS V13.01,2013-04-30 12:59:00,
2013-04-30 08:00:00,66.4,65.2,29.92,SSE,167,0.0,0.0,96,0.00,,SCT200,0.00,VWS V13.01,2013-04-30 13:00:00,
2013-04-30 08:04:00,68.5,67.3,29.92,SSE,167,0.0,0.0,96,0.00,,FEW011,0.00,VWS V13.01,2013-04-30 13:04:00,
2013-04-30 08:09:00,68.8,67.6,29.91,SSE,167,2.0,3.0,96,0.00,,FEW011,0.00,VWS V13.01,2013-04-30 13:09:00,
2013-04-30 08:14:00,69.0,67.8,29.91,SSE,167,0.0,3.0,96,0.00,,FEW011,0.00,VWS V13.01,2013-04-30 13:14:00,
2013-04-30 08:15:00,66.8,65.6,29.91,SSE,167,0.0,0.0,96,0.00,,SCT200,0.00,VWS V13.01,2013-04-30 13:15:00,
2013-04-30 08:19:00,69.3,68.1,29.91,SSE,167,0.0,2.0,96,0.00,,FEW011,0.00,VWS V13.01,2013-04-30 13:19:00,
2013-04-30 08:24:00,69.7,68.5,29.91,SSE,167,0.0,2.0,96,0.00,,FEW011,0.00,VWS V13.01,2013-04-30 13:24:00,
2013-04-30 08:30:00,70.1,68.9,29.91,SSE,167,0.0,2.0,96,0.00,,FEW011,0.00,VWS V13.01,2013-04-30 13:30:00,
2013-04-30 08:35:00,70.4,69.2,29.91,SSE,167,0.0,0.0,96,0.00,,SCT007,0.00,VWS V13.01,2013-04-30 13:35:00,
2013-04-30 08:40:00,70.7,69.2,29.91,SSE,167,0.0,2.0,95,0.00,,SCT007,0.00,VWS V13.01,2013-04-30 13:40:00,
2013-04-30 08:45:00,71.2,69.7,29.91,SSE,166,1.0,3.0,95,0.00,,SCT007,0.00,VWS V13.01,2013-04-30 13:45:00,
2013-04-30 08:50:00,71.8,70.3,29.91,SSE,163,0.0,2.0,95,0.00,,SCT007,0.00,VWS V13.01,2013-04-30 13:50:00,
2013-04-30 08:55:00,72.3,70.2,29.91,SSE,163,0.0,2.0,93,0.00,,SCT007,0.00,VWS V13.01,2013-04-30 13:55:00,
2013-04-30 09:00:00,73.1,70.6,29.90,SSE,153,0.0,3.0,92,0.00,,SCT007,0.00,VWS V13.01,2013-04-30 14:00:00,
2013-04-30 09:05:00,73.7,70.6,29.90,SSE,153,0.0,1.0,90,0.00,,SCT009,0.00,VWS V13.01,2013-04-30 14:05:00,
2013-04-30 09:10:00,74.4,70.3,29.90,SSE,153,0.0,1.0,87,0.00,,SCT009,0.00,VWS V13.01,2013-04-30 14:10:00,
2013-04-30 09:15:00,69.1,67.9,29.91,SSE,167,0.0,3.0,96,0.00,,SCT200,0.00,VWS V13.01,2013-04-30 14:15:00,
2013-04-30 09:16:00,75.0,70.9,29.90,SSE,153,0.0,1.0,87,0.00,,SCT009,0.00,VWS V13.01,2013-04-30 14:16:00,
2013-04-30 09:21:00,75.3,70.1,29.91,ENE,64,2.0,3.0,84,0.00,,SCT009,0.00,VWS V13.01,2013-04-30 14:21:00,
2013-04-30 09:26:00,75.7,70.2,29.90,ESE,123,0.0,3.0,83,0.00,,SCT009,0.00,VWS V13.01,2013-04-30 14:26:00,
2013-04-30 09:30:00,70.2,69.0,29.91,SSE,167,0.0,2.0,96,0.00,,SCT200,0.00,VWS V13.01,2013-04-30 14:30:00,
2013-04-30 09:31:00,76.3,70.4,29.91,SE,142,0.0,4.0,82,0.00,,SCT009,0.00,VWS V13.01,2013-04-30 14:31:00,
2013-04-30 09:36:00,76.7,70.8,29.91,SE,141,0.0,5.0,82,0.00,,SCT009,0.00,VWS V13.01,2013-04-30 14:36:00,
2013-04-30 09:41:00,76.9,69.9,29.91,SSE,159,0.0,5.0,79,0.00,,SCT009,0.00,VWS V13.01,2013-04-30 14:41:00,
2013-04-30 09:45:00,71.3,69.8,29.91,SSE,165,0.0,3.0,95,0.00,,SCT200,0.00,VWS V13.01,2013-04-30 14:45:00,
2013-04-30 09:46:00,77.2,70.2,29.92,SSE,152,4.0,5.0,79,0.00,,SCT009,0.00,VWS V13.01,2013-04-30 14:46:00,
2013-04-30 09:51:00,77.1,70.1,29.92,SSE,148,0.0,5.0,79,0.00,,SCT009,0.00,VWS V13.01,2013-04-30 14:51:00,
2013-04-30 09:56:00,77.2,69.4,29.92,SSE,149,0.0,5.0,77,0.00,,SCT009,0.00,VWS V13.01,2013-04-30 14:56:00,
2013-04-30 10:00:00,73.2,70.4,29.90,SSE,153,0.0,3.0,91,0.00,,SCT200,0.00,VWS V13.01,2013-04-30 15:00:00,
2013-04-30 10:01:00,77.1,69.0,29.92,SE,146,1.0,2.0,76,0.00,,BKN200,0.00,VWS V13.01,2013-04-30 15:01:00,
2013-04-30 10:06:00,77.1,69.7,29.92,SE,138,3.0,6.0,78,0.00,,BKN200,0.00,VWS V13.01,2013-04-30 15:06:00,
2013-04-30 10:11:00,77.3,69.5,29.92,SE,140,3.0,6.0,77,0.00,,BKN200,0.00,VWS V13.01,2013-04-30 15:11:00,
2013-04-30 10:15:00,75.0,70.9,29.90,SSE,153,1.0,2.0,87,0.00,,SCT200,0.00,VWS V13.01,2013-04-30 15:15:00,
2013-04-30 10:17:00,77.3,69.9,29.92,SE,142,4.0,5.0,78,0.00,,BKN200,0.00,VWS V13.01,2013-04-30 15:17:00,
2013-04-30 10:22:00,77.1,69.0,29.92,SE,141,0.0,5.0,76,0.00,,BKN200,0.00,VWS V13.01,2013-04-30 15:22:00,
2013-04-30 10:27:00,77.2,69.4,29.92,SE,140,0.0,5.0,77,0.00,,BKN200,0.00,VWS V13.01,2013-04-30 15:27:00,
2013-04-30 10:30:00,76.3,70.4,29.91,SE,141,5.0,7.0,82,0.00,,SCT200,0.00,VWS V13.01,2013-04-30 15:30:00,
2013-04-30 10:32:00,77.6,70.2,29.92,SE,142,0.0,0.0,78,0.00,,BKN200,0.00,VWS V13.01,2013-04-30 15:32:00,
2013-04-30 10:37:00,77.9,69.7,29.92,SE,142,0.0,6.0,76,0.00,,BKN200,0.00,VWS V13.01,2013-04-30 15:37:00,
2013-04-30 10:42:00,78.1,69.9,29.92,SSE,153,0.0,6.0,76,0.00,,BKN200,0.00,VWS V13.01,2013-04-30 15:42:00,
2013-04-30 10:45:00,77.2,70.2,29.92,SSE,152,4.0,5.0,79,0.00,,SCT200,0.00,VWS V13.01,2013-04-30 15:45:00,
2013-04-30 10:47:00,78.4,69.8,29.92,SSE,163,3.0,3.0,75,0.00,,BKN200,0.00,VWS V13.01,2013-04-30 15:47:00,
2013-04-30 10:52:00,78.4,69.8,29.92,SSE,159,0.0,4.0,75,0.00,,BKN200,0.00,VWS V13.01,2013-04-30 15:52:00,
2013-04-30 10:57:00,78.2,69.2,29.92,SSE,158,0.0,4.0,74,0.00,,BKN200,0.00,VWS V13.01,2013-04-30 15:57:00,
2013-04-30 11:00:00,77.1,69.0,29.92,SE,145,2.0,9.0,76,0.00,,SCT200,0.00,VWS V13.01,2013-04-30 16:00:00,
2013-04-30 11:02:00,77.8,68.5,29.92,SSE,151,0.0,5.0,73,0.00,,BKN200,0.00,VWS V13.01,2013-04-30 16:02:00,
2013-04-30 11:08:00,77.6,69.1,29.92,SE,125,3.0,5.0,75,0.00,,BKN200,0.00,VWS V13.01,2013-04-30 16:08:00,
2013-04-30 11:13:00,77.6,68.7,29.92,SSE,149,0.0,6.0,74,0.00,,BKN200,0.00,VWS V13.01,2013-04-30 16:13:00,
2013-04-30 11:15:00,77.3,69.9,29.92,SE,141,0.0,6.0,78,0.00,,SCT200,0.00,VWS V13.01,2013-04-30 16:15:00,
2013-04-30 11:18:00,77.6,69.1,29.92,SSE,149,0.0,1.0,75,0.00,,BKN200,0.00,VWS V13.01,2013-04-30 16:18:00,
2013-04-30 11:23:00,77.7,69.2,29.92,SSE,150,0.0,3.0,75,0.00,,BKN200,0.00,VWS V13.01,2013-04-30 16:23:00,
2013-04-30 11:28:00,77.8,69.2,29.92,SSE,150,0.0,3.0,75,0.00,,BKN200,0.00,VWS V13.01,2013-04-30 16:28:00,
2013-04-30 11:30:00,77.6,70.2,29.92,SE,142,0.0,5.0,78,0.00,,SCT200,0.00,VWS V13.01,2013-04-30 16:30:00,
2013-04-30 11:33:00,77.7,68.8,29.92,SE,137,0.0,7.0,74,0.00,,BKN048,0.00,VWS V13.01,2013-04-30 16:33:00,
2013-04-30 11:38:00,77.5,68.6,29.92,South,182,0.0,7.0,74,0.00,,BKN048,0.00,VWS V13.01,2013-04-30 16:38:00,
2013-04-30 11:43:00,77.5,69.3,29.92,SE,146,0.0,7.0,76,0.00,,BKN048,0.00,VWS V13.01,2013-04-30 16:43:00,
2013-04-30 11:45:00,78.4,69.8,29.92,SSE,163,0.0,6.0,75,0.00,,SCT200,0.00,VWS V13.01,2013-04-30 16:45:00,
2013-04-30 11:48:00,77.5,69.7,29.93,SSE,165,0.0,2.0,77,0.00,,BKN048,0.00,VWS V13.01,2013-04-30 16:48:00,
2013-04-30 11:54:00,77.6,69.8,29.93,SSE,165,0.0,2.0,77,0.00,,BKN048,0.00,VWS V13.01,2013-04-30 16:54:00,
2013-04-30 11:59:00,77.6,70.2,29.92,SSE,165,0.0,3.0,78,0.00,,BKN048,0.00,VWS V13.01,2013-04-30 16:59:00,
2013-04-30 12:00:00,78.0,68.7,29.92,SE,140,2.0,6.0,73,0.00,,SCT200,0.00,VWS V13.01,2013-04-30 17:00:00,
2013-04-30 12:04:00,77.7,70.3,29.92,South,175,3.0,5.0,78,0.00,,BKN200,0.00,VWS V13.01,2013-04-30 17:04:00,
2013-04-30 12:09:00,77.5,69.7,29.92,SSE,154,0.0,9.0,77,0.00,,BKN200,0.00,VWS V13.01,2013-04-30 17:09:00,
2013-04-30 12:14:00,77.7,70.7,29.92,SE,144,0.0,9.0,79,0.00,,BKN200,0.00,VWS V13.01,2013-04-30 17:14:00,
2013-04-30 12:19:00,78.2,69.6,29.92,SE,146,2.0,9.0,75,0.00,,BKN200,0.00,VWS V13.01,2013-04-30 17:19:00,
2013-04-30 12:24:00,78.6,68.4,29.92,SSE,156,2.0,9.0,71,0.00,,BKN200,0.00,VWS V13.01,2013-04-30 17:24:00,
2013-04-30 12:29:00,78.7,67.7,29.91,SSE,150,0.0,9.0,69,0.00,,BKN200,0.00,VWS V13.01,2013-04-30 17:29:00,
2013-04-30 12:30:00,77.8,69.2,29.92,South,171,3.0,6.0,75,0.00,,SCT200,0.00,VWS V13.01,2013-04-30 17:30:00,
2013-04-30 12:34:00,79.2,68.6,29.91,SE,146,0.0,5.0,70,0.00,,,0.00,VWS V13.01,2013-04-30 17:34:00,
2013-04-30 12:39:00,79.6,68.1,29.91,SE,142,0.0,5.0,68,0.00,,,0.00,VWS V13.01,2013-04-30 17:39:00,
2013-04-30 12:45:00,77.5,69.3,29.93,SSE,157,2.0,7.0,76,0.00,,SCT200,0.00,VWS V13.01,2013-04-30 17:45:00,
2013-04-30 13:00:00,77.6,70.6,29.92,SSE,163,3.0,3.0,79,0.00,,SCT200,0.00,VWS V13.01,2013-04-30 18:00:00,
2013-04-30 13:15:00,77.9,70.1,29.92,SSE,148,0.0,9.0,77,0.00,,SCT200,0.00,VWS V13.01,2013-04-30 18:15:00,
2013-04-30 13:30:00,78.9,67.9,29.91,SSE,148,1.0,9.0,69,0.00,,SCT200,0.00,VWS V13.01,2013-04-30 18:30:00,
2013-04-30 13:45:00,79.7,67.8,29.90,SSE,155,0.0,10.0,67,0.00,,SCT200,0.00,VWS V13.01,2013-04-30 18:45:00,
2013-04-30 14:00:00,79.4,68.8,29.90,SSE,157,0.0,11.0,70,0.00,,SCT200,0.00,VWS V13.01,2013-04-30 19:00:00,
2013-04-30 14:15:00,79.2,69.4,29.90,SSE,151,2.0,9.0,72,0.00,,SCT200,0.00,VWS V13.01,2013-04-30 19:15:00,
2013-04-30 14:30:00,78.0,69.1,29.91,SSE,165,3.0,10.0,74,0.00,,SCT200,0.00,VWS V13.01,2013-04-30 19:30:00,
2013-04-30 14:45:00,76.2,69.2,29.90,SE,145,0.0,11.0,79,0.00,,SCT200,0.00,VWS V13.01,2013-04-30 19:45:00,
2013-04-30 15:00:00,76.4,69.0,29.90,SSE,155,1.0,7.0,78,0.00,,SCT200,0.00,VWS V13.01,2013-04-30 20:00:00,
2013-04-30 15:15:00,76.7,68.9,29.90,SE,137,4.0,6.0,77,0.00,,SCT200,0.00,VWS V13.01,2013-04-30 20:15:00,
2013-04-30 15:16:00,71.3,67.9,29.89,SE,139,0.0,3.0,89,0.09,,,0.09,VWS V13.01,2013-04-30 20:16:00,
2013-04-30 15:21:00,70.9,68.2,29.89,SE,142,0.0,4.0,91,0.09,,,0.09,VWS V13.01,2013-04-30 20:21:00,
2013-04-30 15:26:00,70.8,68.4,29.89,SE,142,0.0,4.0,92,0.09,,,0.09,VWS V13.01,2013-04-30 20:26:00,
2013-04-30 15:30:00,76.7,68.6,29.90,SSE,165,0.0,5.0,76,0.00,,SCT200,0.00,VWS V13.01,2013-04-30 20:30:00,
2013-04-30 15:31:00,70.8,68.4,29.89,SE,142,0.0,0.0,92,0.09,,BKN045,0.09,VWS V13.01,2013-04-30 20:31:00,
2013-04-30 15:37:00,70.8,68.4,29.88,SE,142,0.0,1.0,92,0.09,,BKN045,0.09,VWS V13.01,2013-04-30 20:37:00,
2013-04-30 15:42:00,70.8,68.7,29.88,SE,141,0.0,5.0,93,0.09,,BKN045,0.09,VWS V13.01,2013-04-30 20:42:00,
2013-04-30 15:45:00,76.6,68.5,29.89,SE,138,1.0,10.0,76,0.00,,SCT200,0.00,VWS V13.01,2013-04-30 20:45:00,
2013-04-30 15:47:00,71.1,69.0,29.88,SE,140,0.0,0.0,93,0.09,,BKN045,0.09,VWS V13.01,2013-04-30 20:47:00,
2013-04-30 15:52:00,71.3,69.2,29.87,SE,140,0.0,3.0,93,0.09,,BKN045,0.09,VWS V13.01,2013-04-30 20:52:00,
2013-04-30 15:57:00,71.5,69.4,29.87,SE,140,0.0,3.0,93,0.09,,BKN045,0.09,VWS V13.01,2013-04-30 20:57:00,
2013-04-30 16:00:00,74.5,68.3,29.90,SE,138,0.0,11.0,81,0.07,,SCT200,0.07,VWS V13.01,2013-04-30 21:00:00,
2013-04-30 16:02:00,71.7,69.6,29.87,SE,140,0.0,0.0,93,0.02,,-RA,0.09,VWS V13.01,2013-04-30 21:02:00,
2013-04-30 16:07:00,71.8,69.3,29.87,SE,141,0.0,1.0,92,0.02,,-RA,0.09,VWS V13.01,2013-04-30 21:07:00,
2013-04-30 16:13:00,72.0,69.6,29.86,SE,140,0.0,4.0,92,0.02,,-RA,0.09,VWS V13.01,2013-04-30 21:13:00,
2013-04-30 16:15:00,71.3,67.9,29.89,SE,139,0.0,3.0,89,0.09,,SCT200,0.09,VWS V13.01,2013-04-30 21:15:00,
2013-04-30 16:18:00,72.3,69.8,29.86,SE,140,1.0,4.0,92,0.00,,-RA,0.09,VWS V13.01,2013-04-30 21:18:00,
2013-04-30 16:23:00,72.5,70.1,29.86,SE,140,0.0,4.0,92,0.00,,-RA,0.09,VWS V13.01,2013-04-30 21:23:00,
2013-04-30 16:28:00,72.7,70.2,29.86,SSE,155,1.0,4.0,92,0.00,,-RA,0.09,VWS V13.01,2013-04-30 21:28:00,
2013-04-30 16:30:00,70.8,68.4,29.89,SE,143,0.0,4.0,92,0.09,,SCT200,0.09,VWS V13.01,2013-04-30 21:30:00,
2013-04-30 16:33:00,72.8,70.0,29.86,SSE,155,0.0,0.0,91,0.00,,-RA,0.09,VWS V13.01,2013-04-30 21:33:00,
2013-04-30 16:38:00,72.9,70.1,29.86,SE,134,0.0,6.0,91,0.00,,-RA,0.09,VWS V13.01,2013-04-30 21:38:00,
2013-04-30 16:43:00,73.0,69.9,29.86,SE,139,0.0,6.0,90,0.00,,-RA,0.09,VWS V13.01,2013-04-30 21:43:00,
2013-04-30 16:45:00,71.0,68.9,29.88,SE,140,0.0,5.0,93,0.09,,SCT200,0.09,VWS V13.01,2013-04-30 21:45:00,
2013-04-30 16:48:00,73.0,69.6,29.86,SSE,147,0.0,7.0,89,0.00,,-RA,0.09,VWS V13.01,2013-04-30 21:48:00,
2013-04-30 16:53:00,73.0,69.6,29.86,SSE,152,0.0,7.0,89,0.00,,-RA,0.09,VWS V13.01,2013-04-30 21:53:00,
2013-04-30 16:58:00,73.0,69.6,29.87,SE,132,0.0,7.0,89,0.00,,-RA,0.09,VWS V13.01,2013-04-30 21:58:00,
2013-04-30 17:00:00,71.6,69.5,29.87,SE,140,0.0,3.0,93,0.09,,SCT200,0.09,VWS V13.01,2013-04-30 22:00:00,
2013-04-30 17:04:00,73.0,69.2,29.86,SE,135,0.0,5.0,88,0.00,,BKN100,0.09,VWS V13.01,2013-04-30 22:04:00,
2013-04-30 17:09:00,72.9,69.5,29.87,SE,135,0.0,5.0,89,0.00,,BKN100,0.09,VWS V13.01,2013-04-30 22:09:00,
2013-04-30 17:14:00,72.8,69.4,29.87,SSW,201,2.0,5.0,89,0.00,,BKN100,0.09,VWS V13.01,2013-04-30 22:14:00,
2013-04-30 17:15:00,72.2,69.8,29.86,SE,140,0.0,4.0,92,0.02,,SCT200,0.09,VWS V13.01,2013-04-30 22:15:00,
2013-04-30 17:19:00,72.4,68.7,29.88,SE,146,2.0,6.0,88,0.00,,BKN100,0.09,VWS V13.01,2013-04-30 22:19:00,
2013-04-30 17:24:00,71.9,68.2,29.89,South,178,6.0,10.0,88,0.00,,BKN100,0.10,VWS V13.01,2013-04-30 22:24:00,
2013-04-30 17:29:00,71.0,67.6,29.89,SSE,154,3.0,10.0,89,0.05,,BKN100,0.14,VWS V13.01,2013-04-30 22:29:00,
2013-04-30 17:30:00,72.8,70.0,29.86,SSE,155,0.0,4.0,91,0.00,,SCT200,0.09,VWS V13.01,2013-04-30 22:30:00,
2013-04-30 17:34:00,69.9,66.5,29.88,SE,140,0.0,0.0,89,0.12,,BKN100,0.21,VWS V13.01,2013-04-30 22:34:00,
2013-04-30 17:39:00,69.3,66.2,29.88,SE,140,0.0,0.0,90,0.12,,BKN100,0.21,VWS V13.01,2013-04-30 22:39:00,
2013-04-30 17:45:00,68.8,66.1,29.87,SE,140,0.0,0.0,91,0.14,,BKN100,0.23,VWS V13.01,2013-04-30 22:45:00,
2013-04-30 17:50:00,68.6,66.2,29.87,SE,140,0.0,0.0,92,0.14,,BKN100,0.23,VWS V13.01,2013-04-30 22:50:00,
2013-04-30 17:55:00,68.4,66.0,29.87,SE,140,0.0,0.0,92,0.14,,BKN100,0.23,VWS V13.01,2013-04-30 22:55:00,
2013-04-30 18:00:00,68.3,66.2,29.87,NNW,334,0.0,0.0,93,0.14,,BKN100,0.23,VWS V13.01,2013-04-30 23:00:00,
2013-04-30 18:05:00,68.3,66.2,29.87,NNW,334,0.0,0.0,93,0.14,,-RA,0.23,VWS V13.01,2013-04-30 23:05:00,
2013-04-30 18:10:00,68.3,66.5,29.87,NNW,334,0.0,0.0,94,0.14,,-RA,0.23,VWS V13.01,2013-04-30 23:10:00,
2013-04-30 18:15:00,68.3,66.5,29.88,NNW,334,0.0,0.0,94,0.14,,-RA,0.23,VWS V13.01,2013-04-30 23:15:00,
2013-04-30 18:20:00,68.5,66.7,29.88,South,184,0.0,2.0,94,0.14,,-RA,0.23,VWS V13.01,2013-04-30 23:20:00,
2013-04-30 18:25:00,68.6,66.8,29.88,SSE,161,0.0,3.0,94,0.14,,-RA,0.23,VWS V13.01,2013-04-30 23:25:00,
2013-04-30 18:30:00,68.7,66.9,29.88,SSE,160,0.0,3.0,94,0.14,,-RA,0.23,VWS V13.01,2013-04-30 23:30:00,
2013-04-30 18:35:00,68.9,67.1,29.88,SSE,159,0.0,0.0,94,0.16,,-RA,0.36,VWS V13.01,2013-04-30 23:35:00,
2013-04-30 18:40:00,68.8,67.0,29.88,SSE,159,0.0,0.0,94,0.23,,-RA,0.40,VWS V13.01,2013-04-30 23:40:00,
2013-04-30 18:45:00,68.8,67.0,29.88,SSE,159,0.0,0.0,94,0.23,,-RA,0.40,VWS V13.01,2013-04-30 23:45:00,
2013-04-30 18:50:00,68.7,66.9,29.88,SSE,159,0.0,0.0,94,0.17,,-RA,0.40,VWS V13.01,2013-04-30 23:50:00,
2013-04-30 18:56:00,68.7,66.9,29.88,SSE,159,0.0,0.0,94,0.17,,-RA,0.40,VWS V13.01,2013-04-30 23:56:00,
2013-04-30 19:00:00,68.2,66.1,29.87,NNW,334,0.0,0.0,93,0.14,,SCT200,0.23,VWS V13.01,2013-05-01 00:00:00,
2013-04-30 19:01:00,68.6,66.8,29.88,SSE,159,0.0,0.0,94,0.17,,BKN095,0.40,VWS V13.01,2013-05-01 00:01:00,
2013-04-30 19:06:00,68.6,66.8,29.88,SSE,159,0.0,0.0,94,0.17,,BKN095,0.40,VWS V13.01,2013-05-01 00:06:00,
2013-04-30 19:11:00,68.6,66.8,29.88,SSE,159,0.0,0.0,94,0.17,,BKN095,0.40,VWS V13.01,2013-05-01 00:11:00,
2013-04-30 19:15:00,68.4,66.6,29.88,West,263,0.0,1.0,94,0.14,,SCT200,0.23,VWS V13.01,2013-05-01 00:15:00,
2013-04-30 19:16:00,68.6,66.8,29.89,SSE,159,0.0,0.0,94,0.17,,BKN095,0.40,VWS V13.01,2013-05-01 00:16:00,
2013-04-30 19:21:00,68.6,66.8,29.89,SSE,159,0.0,0.0,94,0.17,,BKN095,0.40,VWS V13.01,2013-05-01 00:21:00,
2013-04-30 19:26:00,68.6,66.8,29.89,SSW,198,0.0,0.0,94,0.17,,BKN095,0.40,VWS V13.01,2013-05-01 00:26:00,
2013-04-30 19:30:00,68.8,67.0,29.88,SSE,161,0.0,3.0,94,0.14,,SCT200,0.23,VWS V13.01,2013-05-01 00:30:00,
2013-04-30 19:31:00,68.7,66.9,29.89,SSW,198,0.0,0.0,94,0.17,,OVC110,0.40,VWS V13.01,2013-05-01 00:31:00,
2013-04-30 19:36:00,68.7,66.9,29.90,SSW,198,0.0,0.0,94,0.17,,OVC110,0.40,VWS V13.01,2013-05-01 00:36:00,
2013-04-30 19:41:00,68.8,67.3,29.90,SSW,198,0.0,0.0,95,0.17,,OVC110,0.40,VWS V13.01,2013-05-01 00:41:00,
2013-04-30 19:45:00,68.8,67.0,29.88,SSE,159,0.0,0.0,94,0.23,,SCT200,0.40,VWS V13.01,2013-05-01 00:45:00,
2013-04-30 19:47:00,68.5,66.7,29.92,SSW,207,2.0,6.0,94,0.17,,OVC110,0.41,VWS V13.01,2013-05-01 00:47:00,
2013-04-30 19:52:00,67.7,65.9,29.91,SSW,200,3.0,6.0,94,0.03,,OVC110,0.43,VWS V13.01,2013-05-01 00:52:00,
2013-04-30 19:57:00,67.4,65.6,29.91,SSW,200,0.0,6.0,94,0.04,,OVC110,0.44,VWS V13.01,2013-05-01 00:57:00,
2013-04-30 20:00:00,68.6,66.8,29.88,SSE,159,0.0,0.0,94,0.17,,SCT200,0.40,VWS V13.01,2013-05-01 01:00:00,
2013-04-30 20:02:00,67.2,65.4,29.92,SSW,200,0.0,0.0,94,0.04,,OVC070,0.44,VWS V13.01,2013-05-01 01:02:00,
2013-04-30 20:07:00,67.1,65.3,29.92,SSW,195,0.0,0.0,94,0.06,,OVC070,0.47,VWS V13.01,2013-05-01 01:07:00,
2013-04-30 20:12:00,67.0,65.2,29.91,SSW,195,0.0,1.0,94,0.12,,OVC070,0.53,VWS V13.01,2013-05-01 01:12:00,
2013-04-30 20:15:00,68.6,66.8,29.89,SSE,159,0.0,0.0,94,0.17,,SCT200,0.40,VWS V13.01,2013-05-01 01:15:00,
2013-04-30 20:17:00,66.8,65.0,29.91,SSW,195,0.0,0.0,94,0.13,,OVC070,0.53,VWS V13.01,2013-05-01 01:17:00,
2013-04-30 20:22:00,66.7,64.9,29.91,SSW,195,0.0,0.0,94,0.14,,OVC070,0.54,VWS V13.01,2013-05-01 01:22:00,
2013-04-30 20:27:00,66.7,64.9,29.91,SSW,195,0.0,0.0,94,0.14,,OVC070,0.54,VWS V13.01,2013-05-01 01:27:00,
2013-04-30 20:30:00,68.7,66.9,29.89,SSW,198,0.0,0.0,94,0.17,,SCT200,0.40,VWS V13.01,2013-05-01 01:30:00,
2013-04-30 20:33:00,66.6,64.8,29.90,SSW,195,0.0,0.0,94,0.16,,OVC070,0.56,VWS V13.01,2013-05-01 01:33:00,
2013-04-30 20:38:00,66.6,64.8,29.90,SSW,195,0.0,0.0,94,0.17,,OVC070,0.57,VWS V13.01,2013-05-01 01:38:00,
2013-04-30 20:43:00,66.6,65.1,29.91,SSW,195,0.0,0.0,95,0.18,,OVC070,0.58,VWS V13.01,2013-05-01 01:43:00,
2013-04-30 20:45:00,68.5,66.7,29.91,SSW,197,4.0,5.0,94,0.17,,SCT200,0.40,VWS V13.01,2013-05-01 01:45:00,
2013-04-30 20:48:00,66.5,65.0,29.91,SSW,195,0.0,0.0,95,0.21,,OVC070,0.62,VWS V13.01,2013-05-01 01:48:00,
2013-04-30 20:53:00,66.6,65.1,29.92,SSW,195,0.0,1.0,95,0.26,,OVC070,0.66,VWS V13.01,2013-05-01 01:53:00,
2013-04-30 20:58:00,66.6,65.1,29.91,SSW,195,0.0,1.0,95,0.29,,OVC070,0.69,VWS V13.01,2013-05-01 01:58:00,
2013-04-30 21:00:00,67.2,65.4,29.92,SSW,200,0.0,6.0,94,0.04,,SCT200,0.44,VWS V13.01,2013-05-01 02:00:00,
2013-04-30 21:03:00,66.4,64.9,29.91,SSW,196,0.0,0.0,95,0.28,,OVC050,0.72,VWS V13.01,2013-05-01 02:03:00,
2013-04-30 21:08:00,66.4,64.9,29.91,SSW,195,0.0,0.0,95,0.32,,OVC050,0.76,VWS V13.01,2013-05-01 02:08:00,
2013-04-30 21:14:00,66.5,65.0,29.92,SSW,196,0.0,0.0,95,0.37,,OVC050,0.81,VWS V13.01,2013-05-01 02:14:00,
2013-04-30 21:15:00,66.8,65.0,29.91,SSW,195,0.0,1.0,94,0.13,,SCT200,0.53,VWS V13.01,2013-05-01 02:15:00,
2013-04-30 21:19:00,66.5,65.0,29.92,SSW,195,0.0,0.0,95,0.33,,OVC050,0.86,VWS V13.01,2013-05-01 02:19:00,
2013-04-30 21:24:00,66.6,65.1,29.92,SSW,196,0.0,0.0,95,0.36,,OVC050,0.89,VWS V13.01,2013-05-01 02:24:00,
2013-04-30 21:29:00,66.7,65.2,29.92,SSW,195,0.0,0.0,95,0.36,,OVC050,0.89,VWS V13.01,2013-05-01 02:29:00,
2013-04-30 21:30:00,66.6,64.8,29.91,SSW,196,0.0,0.0,94,0.15,,SCT200,0.55,VWS V13.01,2013-05-01 02:30:00,
2013-04-30 21:34:00,66.8,65.3,29.91,SSW,196,0.0,0.0,95,0.34,,OVC033CB,0.89,VWS V13.01,2013-05-01 02:34:00,
2013-04-30 21:39:00,66.8,65.3,29.91,WNW,287,0.0,0.0,95,0.35,,OVC033CB,0.90,VWS V13.01,2013-05-01 02:39:00,
2013-04-30 21:44:00,66.8,65.3,29.91,NNW,340,0.0,0.0,95,0.36,,OVC033CB,0.91,VWS V13.01,2013-05-01 02:44:00,
2013-04-30 21:45:00,66.5,65.0,29.91,SSW,196,0.0,0.0,95,0.20,,SCT200,0.60,VWS V13.01,2013-05-01 02:45:00,
2013-04-30 21:49:00,66.8,65.3,29.91,NNW,340,0.0,0.0,95,0.31,,OVC033CB,0.91,VWS V13.01,2013-05-01 02:49:00,
2013-04-30 21:54:00,66.8,65.3,29.91,NNW,340,0.0,0.0,95,0.31,,OVC033CB,0.91,VWS V13.01,2013-05-01 02:54:00,
2013-04-30 22:00:00,66.9,65.4,29.91,NNW,340,0.0,0.0,95,0.31,,OVC033CB,0.91,VWS V13.01,2013-05-01 03:00:00,
2013-04-30 22:05:00,66.9,65.4,29.91,NNW,340,0.0,0.0,95,0.21,,-RA,0.91,VWS V13.01,2013-05-01 03:05:00,
2013-04-30 22:10:00,66.9,65.4,29.91,NNW,340,0.0,0.0,95,0.21,,-RA,0.91,VWS V13.01,2013-05-01 03:10:00,
2013-04-30 22:15:00,67.0,65.5,29.91,NNW,340,0.0,0.0,95,0.21,,-RA,0.91,VWS V13.01,2013-05-01 03:15:00,
2013-04-30 22:20:00,67.1,65.6,29.92,NNW,340,0.0,0.0,95,0.07,,-RA,0.91,VWS V13.01,2013-05-01 03:20:00,
2013-04-30 22:25:00,67.1,65.6,29.92,NNW,340,0.0,0.0,95,0.07,,-RA,0.91,VWS V13.01,2013-05-01 03:25:00,
2013-04-30 22:30:00,67.2,65.7,29.91,NNW,340,0.0,0.0,95,0.07,,-RA,0.91,VWS V13.01,2013-05-01 03:30:00,
2013-04-30 22:35:00,67.2,65.7,29.91,NNW,340,0.0,0.0,95,0.02,,OVC049,0.91,VWS V13.01,2013-05-01 03:35:00,
2013-04-30 22:40:00,67.3,65.8,29.91,NNW,340,0.0,0.0,95,0.02,,OVC049,0.91,VWS V13.01,2013-05-01 03:40:00,
2013-04-30 22:45:00,66.8,65.3,29.91,NNW,340,0.0,0.0,95,0.36,,SCT200,0.91,VWS V13.01,2013-05-01 03:45:00,
2013-04-30 22:46:00,67.3,65.8,29.90,NNW,340,0.0,0.0,95,0.02,,OVC049,0.91,VWS V13.01,2013-05-01 03:46:00,
2013-04-30 22:51:00,67.3,65.8,29.90,NNW,340,0.0,0.0,95,0.00,,OVC049,0.91,VWS V13.01,2013-05-01 03:51:00,
2013-04-30 22:56:00,67.3,65.8,29.91,NNW,340,0.0,0.0,95,0.00,,OVC049,0.91,VWS V13.01,2013-05-01 03:56:00,
2013-04-30 23:00:00,66.8,65.3,29.91,NNW,340,0.0,0.0,95,0.31,,SCT200,0.91,VWS V13.01,2013-05-01 04:00:00,
2013-04-30 23:01:00,67.3,65.8,29.90,NNW,340,0.0,0.0,95,0.00,,OVC110,0.91,VWS V13.01,2013-05-01 04:01:00,
2013-04-30 23:03:00,67.3,65.8,29.90,NNW,340,0.0,0.0,95,0.00,,OVC110,0.91,VWS V13.01,2013-05-01 04:03:00,
2013-04-30 23:08:00,67.3,65.8,29.90,NNW,340,0.0,0.0,95,0.00,,OVC110,0.91,VWS V13.01,2013-05-01 04:08:00,
2013-04-30 23:13:00,67.4,65.9,29.90,NNW,340,0.0,0.0,95,0.00,,OVC110,0.91,VWS V13.01,2013-05-01 04:13:00,
2013-04-30 23:15:00,67.0,65.5,29.92,NNW,340,0.0,0.0,95,0.21,,SCT200,0.91,VWS V13.01,2013-05-01 04:15:00,
2013-04-30 23:18:00,67.5,66.0,29.90,NNW,340,0.0,0.0,95,0.00,,OVC110,0.91,VWS V13.01,2013-05-01 04:18:00,
2013-04-30 23:23:00,67.5,66.0,29.90,NNW,340,0.0,0.0,95,0.00,,OVC110,0.91,VWS V13.01,2013-05-01 04:23:00,
2013-04-30 23:28:00,67.6,66.1,29.90,NNW,340,0.0,0.0,95,0.00,,OVC110,0.91,VWS V13.01,2013-05-01 04:28:00,
2013-04-30 23:30:00,67.2,65.7,29.91,NNW,340,0.0,0.0,95,0.07,,SCT200,0.91,VWS V13.01,2013-05-01 04:30:00,
2013-04-30 23:33:00,67.7,66.2,29.90,NNW,340,0.0,0.0,95,0.00,,OVC070,0.91,VWS V13.01,2013-05-01 04:33:00,
2013-04-30 23:38:00,67.7,66.2,29.89,NNW,340,0.0,0.0,95,0.00,,OVC070,0.91,VWS V13.01,2013-05-01 04:38:00,
2013-04-30 23:44:00,67.8,66.3,29.89,NNW,340,0.0,0.0,95,0.00,,OVC070,0.91,VWS V13.01,2013-05-01 04:44:00,
2013-04-30 23:45:00,67.3,65.8,29.90,NNW,340,0.0,0.0,95,0.02,,SCT200,0.91,VWS V13.01,2013-05-01 04:45:00,
2013-04-30 23:49:00,67.9,66.4,29.89,NNW,340,0.0,0.0,95,0.00,,OVC070,0.91,VWS V13.01,2013-05-01 04:49:00,
2013-04-30 23:54:00,67.9,66.4,29.89,NNW,340,0.0,0.0,95,0.00,,OVC070,0.91,VWS V13.01,2013-05-01 04:54:00,
2013-04-30 23:59:00,68.0,66.5,29.88,NNW,340,0.0,0.0,95,0.00,,OVC070,0.91,VWS V13.01,2013-05-01 04:59:00,